Weather History for Two Harbors, MN

Change the Weather History Date:

Wednesday, January 23, 2013

  Actual Average Record
Temperature  
Mean Temperature -4 °F -  
Max Temperature 5 °F 25 °F 46 °F (2015)
Min Temperature -14 °F 7 °F -29 °F (1963)
Degree Days  
Heating Degree Days 70    
Moisture  
Dew Point -16 °F    
Average Humidity 62    
Maximum Humidity 77    
Minimum Humidity 46    
Precipitation  
Precipitation 0.00 in - - ()
Sea Level Pressure  
Sea Level Pressure 30.17 in    
Wind  
Wind Speed 6 mph (WNW)    
Max Wind Speed 16 mph    
Max Gust Speed 25 mph    
Visibility 8 miles    
Events Snow    
Averages and records for this station are not official NWS values.
T = Trace of Precipitation, MM = Missing Value Source: NWS Daily Summary

Daily Weather History Graph

Daily Weather History Graph

Search for Another Location

Airport:

Trip Planner

Search our weather history database for the weather conditions in past years. The results will help you decide how hot, cold, wet, or windy it might be!

Date:

Astronomy

Jan. 23, 2013 Rise Set
Actual Time 7:41 AM CST 4:56 PM CST
Civil Twilight 7:08 AM CST 5:30 PM CST
Nautical Twilight 6:31 AM CST 6:07 PM CST
Astronomical Twilight 5:55 AM CST 6:43 PM CST
Moon 2:04 PM CST (1/23) 4:56 AM CST (1/23)
Length of Visible Light 10h 21m
Length of Day
9h 14m
Waxing Gibbous, 89% of the Moon is Illuminated
Jan 23
Waxing Gibbous
Jan 26
Full
Feb 3
Last Quarter
Feb 10
New
Feb 17
First Quarter

Hourly Weather History & Observations

Time (CST) Temp. Windchill Dew Point Humidity Pressure Visibility Wind Dir Wind Speed Gust Speed Precip Events Conditions
12:11 AM -5.8 °F -19.9 °F -16.6 °F 60% 30.08 in 10.0 mi West 6.9 mph - N/A   Mostly Cloudy
12:32 AM -5.8 °F -21.2 °F -14.8 °F 65% 30.08 in 10.0 mi West 8.1 mph - N/A   Overcast
12:51 AM -5.8 °F -19.9 °F -14.8 °F 65% 30.08 in 10.0 mi West 6.9 mph - N/A   Overcast
1:11 AM -5.8 °F -16.7 °F -16.6 °F 60% 30.08 in 10.0 mi West 4.6 mph - N/A   Overcast
1:31 AM -7.6 °F -23.4 °F -16.6 °F 65% 30.07 in 10.0 mi West 8.1 mph - N/A   Overcast
1:51 AM -7.6 °F -22.1 °F -16.6 °F 65% 30.07 in 10.0 mi West 6.9 mph - N/A   Overcast
2:11 AM -7.6 °F -18.8 °F -16.6 °F 65% 30.07 in 10.0 mi West 4.6 mph - N/A   Overcast
2:31 AM -7.6 °F -20.6 °F -16.6 °F 65% 30.08 in 10.0 mi West 5.8 mph - N/A   Overcast
2:52 AM -9.4 °F -22.7 °F -16.6 °F 71% 30.08 in 10.0 mi West 5.8 mph - N/A   Overcast
3:12 AM -9.4 °F -20.9 °F -16.6 °F 71% 30.08 in 10.0 mi West 4.6 mph - N/A   Overcast
3:32 AM -9.4 °F -18.6 °F -16.6 °F 71% 30.08 in 10.0 mi West 3.5 mph - N/A   Overcast
3:52 AM -7.6 °F -16.5 °F -16.6 °F 65% 30.07 in 10.0 mi West 3.5 mph - N/A   Overcast
4:11 AM -7.6 °F -18.8 °F -16.6 °F 65% 30.06 in 10.0 mi West 4.6 mph - N/A   Overcast
4:31 AM -7.6 °F -18.8 °F -14.8 °F 71% 30.05 in 10.0 mi West 4.6 mph - N/A   Overcast
4:51 AM -7.6 °F -20.6 °F -14.8 °F 71% 30.04 in 10.0 mi WSW 5.8 mph - N/A   Overcast
5:11 AM -5.8 °F -18.4 °F -14.8 °F 65% 30.04 in 10.0 mi WSW 5.8 mph - N/A   Overcast
5:32 AM -5.8 °F -14.5 °F -14.8 °F 65% 30.03 in 10.0 mi WSW 3.5 mph - N/A   Overcast
5:51 AM -5.8 °F -14.5 °F -13.0 °F 71% 30.03 in 10.0 mi SW 3.5 mph - N/A   Overcast
6:12 AM -5.8 °F - -13.0 °F 71% 30.03 in 10.0 mi Calm Calm - N/A   Mostly Cloudy
6:31 AM -5.8 °F -16.7 °F -11.2 °F 77% 30.02 in 4.0 mi WSW 4.6 mph - N/A Snow Light Snow
6:51 AM -4.0 °F -14.6 °F -11.2 °F 71% 30.02 in 4.0 mi WSW 4.6 mph - N/A Snow Light Snow
7:12 AM -4.0 °F -12.4 °F -11.2 °F 71% 30.01 in 7.0 mi WSW 3.5 mph - N/A   Overcast
7:31 AM -5.8 °F -14.5 °F -11.2 °F 77% 30.01 in 4.0 mi WSW 3.5 mph - N/A   Haze
7:51 AM -5.8 °F - -13.0 °F 71% 30.01 in 3.0 mi Calm Calm - N/A Snow Light Snow
8:12 AM -5.8 °F - -13.0 °F 71% 30.01 in 1.8 mi Calm Calm - N/A Snow Light Snow
8:31 AM -5.8 °F - -11.2 °F 77% 30.01 in 2.0 mi Calm Calm - N/A Snow Light Snow
8:51 AM -5.8 °F - -13.0 °F 71% 30.02 in 2.5 mi Calm Calm - N/A Snow Light Snow
9:12 AM -5.8 °F -14.5 °F -11.2 °F 77% 30.01 in 3.0 mi SW 3.5 mph - N/A Snow Light Snow
9:31 AM -5.8 °F -14.5 °F -11.2 °F 77% 30.01 in 2.0 mi SW 3.5 mph - N/A Snow Light Snow
9:51 AM -2.2 °F -12.5 °F -11.2 °F 66% 30.01 in 7.0 mi SSW 4.6 mph - N/A   Scattered Clouds
10:12 AM 3.2 °F -12.2 °F -7.6 °F 61% 30.01 in 7.0 mi West 10.4 mph - N/A Snow Light Snow
10:31 AM 3.2 °F -13.1 °F -7.6 °F 61% 30.02 in 7.0 mi WNW 11.5 mph 18.4 mph N/A   Scattered Clouds
10:51 AM 3.2 °F -12.2 °F -7.6 °F 61% 30.02 in 7.0 mi WNW 10.4 mph 19.6 mph N/A   Scattered Clouds
11:12 AM 5.0 °F -4.1 °F -7.6 °F 56% 30.02 in 10.0 mi NW 4.6 mph 17.3 mph N/A   Clear
11:31 AM 5.0 °F -10.8 °F -7.6 °F 56% 30.03 in 7.0 mi WNW 11.5 mph 20.7 mph N/A   Scattered Clouds
11:51 AM 3.2 °F -13.1 °F -7.6 °F 61% 30.04 in 4.0 mi NW 11.5 mph 25.3 mph N/A   Haze
12:11 PM 3.2 °F -13.1 °F -9.4 °F 56% 30.05 in 5.0 mi NW 11.5 mph 18.4 mph N/A   Haze
12:32 PM 1.4 °F -13.5 °F -9.4 °F 61% 30.06 in 2.5 mi WNW 9.2 mph 21.9 mph N/A   Haze
12:51 PM 1.4 °F -16.9 °F -11.2 °F 56% 30.07 in 5.0 mi NW 13.8 mph 24.2 mph N/A   Haze
1:11 PM 1.4 °F -16.1 °F -13.0 °F 51% 30.08 in 10.0 mi NW 12.7 mph 25.3 mph N/A   Mostly Cloudy
1:32 PM -0.4 °F -16.7 °F -14.8 °F 51% 30.10 in 7.0 mi NW 10.4 mph 25.3 mph N/A   Mostly Cloudy
1:51 PM -0.4 °F -19.2 °F -14.8 °F 51% 30.12 in 7.0 mi NW 13.8 mph 21.9 mph N/A   Overcast
2:11 PM -0.4 °F -18.4 °F -16.6 °F 46% 30.14 in 10.0 mi NNW 12.7 mph 24.2 mph N/A   Mostly Cloudy
2:32 PM -0.4 °F -19.2 °F -14.8 °F 51% 30.15 in 7.0 mi NW 13.8 mph 19.6 mph N/A   Mostly Cloudy
2:51 PM -0.4 °F -20.5 °F -16.6 °F 46% 30.18 in 10.0 mi NNW 16.1 mph 24.2 mph N/A   Scattered Clouds
3:11 PM -2.2 °F -18.9 °F -16.6 °F 50% 30.20 in 5.0 mi NW 10.4 mph 24.2 mph N/A   Haze
3:32 PM -2.2 °F -19.9 °F -18.4 °F 46% 30.23 in 10.0 mi NW 11.5 mph 20.7 mph N/A   Scattered Clouds
3:51 PM -4.0 °F -20.2 °F -18.4 °F 50% 30.24 in 10.0 mi NW 9.2 mph 18.4 mph N/A   Clear
4:11 PM -4.0 °F -19.0 °F -18.4 °F 50% 30.27 in 10.0 mi NNW 8.1 mph 17.3 mph N/A   Clear
4:32 PM -5.8 °F -18.4 °F -18.4 °F 55% 30.29 in 10.0 mi NW 5.8 mph - N/A   Clear
4:51 PM -5.8 °F -18.4 °F -18.4 °F 55% 30.31 in 10.0 mi NNW 5.8 mph - N/A   Clear
5:11 PM -7.6 °F -22.1 °F -18.4 °F 59% 30.33 in 10.0 mi NNW 6.9 mph - N/A   Clear
5:32 PM -7.6 °F -16.5 °F -20.2 °F 54% 30.34 in 10.0 mi NNW 3.5 mph - N/A   Clear
5:51 PM -9.4 °F -20.9 °F -20.2 °F 59% 30.35 in 10.0 mi NNW 4.6 mph - N/A   Clear
6:11 PM -9.4 °F -25.6 °F -20.2 °F 59% 30.36 in 10.0 mi NW 8.1 mph - N/A   Clear
6:32 PM -9.4 °F -26.8 °F -20.2 °F 59% 30.38 in 10.0 mi NW 9.2 mph - N/A   Clear
7:11 PM -9.4 °F -24.3 °F -20.2 °F 59% 30.41 in 10.0 mi WNW 6.9 mph - N/A   Clear
7:32 PM -9.4 °F -25.6 °F -20.2 °F 59% 30.42 in 10.0 mi NW 8.1 mph - N/A   Clear
7:51 PM -11.2 °F -26.4 °F -20.2 °F 64% 30.43 in 10.0 mi NW 6.9 mph 18.4 mph N/A   Clear
8:11 PM -11.2 °F -24.8 °F -20.2 °F 64% 30.45 in 10.0 mi NW 5.8 mph - N/A   Clear
8:32 PM -11.2 °F -29.0 °F -20.2 °F 64% 30.45 in 10.0 mi NW 9.2 mph - N/A   Clear
8:51 PM -11.2 °F -29.0 °F -22.0 °F 59% 30.44 in 10.0 mi NNW 9.2 mph - N/A   Clear
9:11 PM -11.2 °F -27.8 °F -22.0 °F 59% 30.44 in 10.0 mi NNW 8.1 mph 17.3 mph N/A   Clear
9:31 PM -11.2 °F -29.0 °F -22.0 °F 59% 30.45 in 10.0 mi NW 9.2 mph - N/A   Clear
9:51 PM -13.0 °F -25.1 °F -22.0 °F 64% 30.46 in 10.0 mi NNW 4.6 mph - N/A   Clear
10:11 PM -13.0 °F -30.0 °F -23.8 °F 59% 30.47 in 10.0 mi NNW 8.1 mph 18.4 mph N/A   Clear
10:31 PM -13.0 °F -30.0 °F -23.8 °F 59% 30.47 in 10.0 mi North 8.1 mph - N/A   Clear
10:51 PM -13.0 °F -22.7 °F -23.8 °F 59% 30.50 in 10.0 mi NNW 3.5 mph - N/A   Clear
11:11 PM -14.8 °F -24.8 °F -23.8 °F 64% 30.50 in 10.0 mi NNW 3.5 mph - N/A   Clear
11:51 PM -14.8 °F - -25.6 °F 58% 30.53 in 10.0 mi Calm Calm - N/A   Clear